Location: Casteau
(50.5142°N, 4.0161°E)
Time: 03:09:03
(UTC+00:00)

Explorer 11/Cluster Stage 4 - Pass Details

Date: 04 August 2021
Orbit: 467 x 1257 km, 28.8° (Epoch: 18 September)

Event Time Altitude Azimuth Distance (km) Brightness Sun altitude
Rises 07:30:25 0° 209° (SSW) 3,929 10.0 29.0°
Reaches altitude 10° 07:36:15 10° 174° (S) 3,130 9.9 29.9°
Maximum altitude 07:37:44 11° 163° (SSE) 3,113 10.1 30.2°
Drops below altitude 10° 07:39:15 10° 152° (SSE) 3,183 10.3 30.4°
Sets 07:45:27 0° 118° (ESE) 4,196 11.3 31.4°
